Home > Weather > Potsdam > Past weeks

Flag for Germany Past Weather in Potsdam, Brandenburg, Germany — Yesterday and Last 2 Weeks

Now
86 °F

Passing clouds.


Feels Like: 84 °F
Forecast: 64 / 89 °F
Wind: 12 mph from Southeast

Location: Berlin-Tegel

Current Time: Aug 25, 2016 at 5:12:27 PM

Latest Report: Aug 25, 2016 at 4:20 PM


Visibility: N/A

Pressure: 30.12 "Hg

Humidity: 29%

Dew Point: 50 °F

Location of PotsdamLocation

Past Weather in Potsdam — Graph

°F

Potsdam Temperature Yesterday

Maximum temperature yesterday: 82 °F (at 4:20 PM)
Minimum temperature yesterday: 63 °F (at 12:20 AM)
Average temperature yesterday: 72 °F

High & Low Weather Summary for the Past Weeks

 TemperatureHumidityPressure
High86 °F (Aug 25, 3:50 PM)100% (Aug 17, 3:50 AM)30.33 "Hg (Aug 17, 3:50 AM)
Low45 °F (Aug 11, 5:20 AM)28% (Aug 19, 3:20 PM)29.80 "Hg (Aug 18, 4:20 PM)
Average64 °F67%30.09 "Hg
* Reported Aug 10 3:20 PM — Aug 25 3:50 PM, Potsdam, Weather by CustomWeather, © 2016

Note: Actual official high and low records may vary slightly from our data, if they occured in-between our weather recording intervals... More about our weather records

Advertising

Potsdam Weather History for the Previous 24 Hours

Scroll right to see more
 ConditionsComfort  
Time TempWeatherWind HumidityBarometerVisibility
3:50 PM
Thu, Aug 25
86 °FPassing clouds.13 mph31%30.12 "HgN/A
3:20 PM84 °FPassing clouds.10 mph31%30.15 "HgN/A
2:50 PM84 °FPassing clouds.10 mph33%30.15 "HgN/A
2:20 PM84 °FPassing clouds.9 mph33%30.15 "HgN/A
1:50 PM82 °FPassing clouds.9 mph35%30.15 "HgN/A
1:20 PM82 °FSunny.8 mph37%30.18 "Hg10 mi
12:50 PM81 °FPassing clouds.9 mph42%30.18 "HgN/A
12:20 PM79 °FPassing clouds.10 mph45%30.18 "HgN/A
11:50 AM79 °FPassing clouds.12 mph48%30.18 "HgN/A
11:20 AM77 °FPassing clouds.9 mph51%30.18 "HgN/A
10:50 AM75 °FPassing clouds.10 mph50%30.18 "HgN/A
10:20 AM73 °FSunny.10 mph53%30.21 "Hg10 mi
9:50 AM72 °FPassing clouds.9 mph61%30.21 "HgN/A
9:20 AM70 °FPassing clouds.9 mph64%30.21 "HgN/A
8:50 AM70 °FSunny.8 mph64%30.21 "Hg10 mi
8:20 AM68 °FPassing clouds.7 mph64%30.21 "HgN/A
7:50 AM66 °FPassing clouds.9 mph68%30.21 "HgN/A
7:20 AM64 °FPassing clouds.7 mph73%30.21 "HgN/A
6:50 AM63 °FPassing clouds.7 mph77%30.21 "HgN/A
6:20 AM63 °FClear.6 mph73%30.21 "Hg10 mi
5:50 AM63 °FClear.6 mph73%30.21 "Hg10 mi
5:20 AM63 °FPassing clouds.8 mph77%30.21 "HgN/A
4:50 AM64 °FClear.10 mph73%30.21 "Hg10 mi
4:20 AM64 °FClear.8 mph73%30.21 "Hg10 mi
3:50 AM63 °FClear.6 mph73%30.24 "Hg10 mi
3:20 AM64 °FClear.7 mph73%30.24 "Hg10 mi
2:50 AM64 °FClear.8 mph73%30.24 "Hg10 mi
2:20 AM66 °FClear.8 mph68%30.24 "Hg10 mi
1:50 AM64 °FClear.6 mph73%30.24 "Hg10 mi
1:20 AM68 °FClear.9 mph69%30.24 "Hg10 mi
12:50 AM66 °FClear.7 mph68%30.24 "Hg10 mi
12:20 AM68 °FClear.8 mph64%30.24 "Hg10 mi
11:50 PM
Wed, Aug 24
68 °FClear.7 mph69%30.24 "Hg10 mi
11:20 PM68 °FClear.7 mph64%30.24 "Hg10 mi
10:50 PM70 °FClear.6 mph64%30.24 "Hg10 mi
10:20 PM72 °FClear.7 mph61%30.24 "Hg10 mi
9:50 PM73 °FClear.7 mph57%30.24 "Hg10 mi
9:20 PM73 °FPassing clouds.6 mph57%30.24 "HgN/A
8:50 PM75 °FSunny.7 mph54%30.24 "Hg10 mi
8:20 PM75 °FSunny.8 mph54%30.24 "Hg10 mi
7:50 PM77 °FSunny.8 mph47%30.24 "Hg10 mi
7:20 PM79 °FSunny.8 mph45%30.24 "Hg10 mi
6:50 PM81 °FSunny.8 mph39%30.24 "Hg10 mi
6:20 PM81 °FPassing clouds.7 mph42%30.24 "HgN/A
5:50 PM82 °FPassing clouds.6 mph37%30.24 "HgN/A
5:20 PM82 °FPassing clouds.7 mph37%30.24 "HgN/A
Weather by CustomWeather, © 2016

See weather overviewHow to use our weather pages